Location: Fort Worth, Tx
(32.7431°N, 97.3695°W)
Time: 08:44:38
(UTC-05:00)

Explorer 11/Cluster Stage 4 - Visible Passes

Search period start: 27 January 2023 00:00
Search period end: 06 February 2023 00:00
Orbit: 466 x 1244 km, 28.8° (Epoch: 26 January)

Date Brightness Start Highest point End Pass type
(mag) Time Alt. Az. Time Alt. Az. Time Alt. Az.
27 Jan 9.8 06:23:27 10° S 06:26:32 12° SSE 06:29:35 10° SE visible
28 Jan 9.7 06:08:59 10° S 06:13:05 15° SSE 06:17:08 10° ESE visible
28 Jan 8.9 07:54:19 10° SW 08:01:33 36° SSE 08:08:12 10° E visible
29 Jan 9.6 05:54:48 10° S 05:59:36 17° SSE 06:04:22 10° ESE visible
29 Jan 8.7 07:40:39 10° SW 07:48:05 39° SSE 07:55:02 10° E visible
30 Jan 9.4 05:42:03 13° S 05:46:05 19° SSE 05:51:24 10° ESE visible
30 Jan 8.5 07:27:01 10° SW 07:34:35 42° SSE 07:41:48 10° E visible
31 Jan 9.2 05:30:16 19° S 05:32:33 21° SSE 05:38:19 10° ESE visible
31 Jan 8.4 07:13:25 10° SW 07:21:04 46° SSE 07:28:31 10° E visible
01 Feb 9.0 05:18:18 23° SSE 05:18:59 24° SSE 05:25:06 10° ESE visible
01 Feb 8.2 07:00:18 12° SW 07:07:31 49° SSE 07:15:09 10° E visible
02 Feb 9.0 05:06:12 25° SE 05:06:12 25° SE 05:11:48 10° E visible
02 Feb 8.1 06:48:12 19° SW 06:53:59 52° SSE 07:01:46 10° E visible
03 Feb 9.1 04:53:59 25° SE 04:53:59 25° SE 04:58:26 10° E visible
03 Feb 7.9 06:35:58 26° SW 06:40:25 54° SSE 06:48:19 10° E visible
04 Feb 9.2 04:41:39 22° ESE 04:41:39 22° ESE 04:44:59 10° E visible
04 Feb 7.8 06:23:37 35° SW 06:26:50 57° SSE 06:34:49 10° E visible
05 Feb 9.4 04:29:13 18° ESE 04:29:13 18° ESE 04:31:29 10° E visible
05 Feb 7.7 06:11:11 46° SW 06:13:16 59° SSE 06:21:17 10° E visible
05 Feb 7.8 07:54:26 10° W 08:02:22 67° S 08:10:21 10° ESE visible
